• In Russia
  • List of Countries
  • For 7 days
  • Water Temperature
  • Satellite Maps
  • Weather Map
  • Weather Widgets
  • user-avatar
    Login

    Hourly Weather Prutz

    Today, 28 February, Tuesday

    Time Temperature Precipitation Wind Pressure Humidity
    00:00 -4°C° 0 mm 3 mps 624 mmHg 93%
    01:00 -4°C° 0 mm 3 mps 623 mmHg 93%
    02:00 -4°C° 0 mm 3 mps 623 mmHg 92%
    03:00 -2°C° 0 mm 3 mps 622 mmHg 92%
    04:00 -2°C° 0 mm 3 mps 622 mmHg 92%
    05:00 -2°C° 0.1 mm 3 mps 622 mmHg 93%
    06:00 -2°C° 0.1 mm 3 mps 621 mmHg 94%
    07:00 -2°C° 0.1 mm 2 mps 621 mmHg 95%
    08:00 -2°C° 0.8 mm 2 mps 622 mmHg 95%
    09:00 -1°C° 0.8 mm 2 mps 622 mmHg 95%
    10:00 +2°C° 0.8 mm 1 mps 622 mmHg 95%
    11:00 +1°C° 1.2 mm 2 mps 621 mmHg 95%
    12:00 +1°C° 1.2 mm 2 mps 621 mmHg 96%
    13:00 +1°C° 1.2 mm 2 mps 620 mmHg 96%
    14:00 +1°C° 1 mm 2 mps 619 mmHg 96%
    15:00 +1°C° 1 mm 2 mps 619 mmHg 96%
    16:00 +2°C° 1 mm 2 mps 618 mmHg 97%
    17:00 +1°C° 1.3 mm 2 mps 618 mmHg 97%
    18:00 -1°C° 1.3 mm 2 mps 618 mmHg 97%
    19:00 -2°C° 1.3 mm 3 mps 618 mmHg 98%
    20:00 -2°C° 1.8 mm 3 mps 618 mmHg 98%
    21:00 -4°C° 1.8 mm 3 mps 619 mmHg 98%
    22:00 -5°C° 1.8 mm 3 mps 619 mmHg 98%
    23:00 -4°C° 1.3 mm 2 mps 619 mmHg 98%

    Tomorrow, 1 March, Wednesday

    Time Temperature Precipitation Wind Pressure Humidity
    00:00 -5°C° 1.3 mm 2 mps 619 mmHg 98%
    01:00 -6°C° 1.3 mm 2 mps 620 mmHg 97%
    02:00 -6°C° 0.4 mm 2 mps 620 mmHg 97%
    03:00 -6°C° 0.4 mm 2 mps 620 mmHg 97%
    04:00 -6°C° 0.4 mm 1 mps 621 mmHg 97%
    05:00 -7°C° 0 mm 2 mps 621 mmHg 97%
    06:00 -8°C° 0 mm 2 mps 621 mmHg 97%
    07:00 -9°C° 0 mm 2 mps 621 mmHg 97%
    08:00 -7°C° 0 mm 2 mps 622 mmHg 96%
    09:00 -6°C° 0 mm 2 mps 623 mmHg 95%
    10:00 -4°C° 0 mm 2 mps 624 mmHg 93%
    11:00 -3°C° 0.1 mm 2 mps 625 mmHg 93%
    12:00 -3°C° 0.1 mm 2 mps 625 mmHg 92%
    13:00 -2°C° 0.1 mm 2 mps 626 mmHg 91%
    14:00 -2°C° 0.1 mm 2 mps 626 mmHg 91%
    15:00 -2°C° 0.1 mm 2 mps 626 mmHg 92%
    16:00 -2°C° 0.1 mm 2 mps 626 mmHg 92%
    17:00 -4°C° 0 mm 2 mps 626 mmHg 93%
    18:00 -7°C° 0 mm 2 mps 625 mmHg 94%
    19:00 -9°C° 0 mm 2 mps 625 mmHg 94%
    20:00 -8°C° 0 mm 2 mps 626 mmHg 93%
    21:00 -7°C° 0 mm 2 mps 626 mmHg 93%
    22:00 -6°C° 0 mm 2 mps 627 mmHg 92%
    23:00 -6°C° 0.1 mm 3 mps 627 mmHg 92%

    Day after tomorrow, 2 March, Thursday

    Time Temperature Precipitation Wind Pressure Humidity
    00:00 -6°C° 0.1 mm 3 mps 627 mmHg 93%
    01:00 -5°C° 0.1 mm 3 mps 627 mmHg 93%
    02:00 -5°C° 0 mm 3 mps 627 mmHg 93%
    03:00 -6°C° 0 mm 3 mps 627 mmHg 93%
    04:00 -5°C° 0 mm 2 mps 627 mmHg 93%
    05:00 -5°C° 0.2 mm 2 mps 627 mmHg 93%
    06:00 -4°C° 0.2 mm 2 mps 627 mmHg 93%
    07:00 -4°C° 0.2 mm 2 mps 628 mmHg 93%
    08:00 -3°C° 0.4 mm 2 mps 629 mmHg 94%
    09:00 +1°C° 0.4 mm 1 mps 630 mmHg 95%
    10:00 +2°C° 0.4 mm 1 mps 631 mmHg 96%
    11:00 +3°C° 0.3 mm 1 mps 631 mmHg 96%
    12:00 +3°C° 0.3 mm 1 mps 631 mmHg 97%
    13:00 +3°C° 0.3 mm 1 mps 631 mmHg 97%
    14:00 +3°C° 0.2 mm 1 mps 631 mmHg 97%
    15:00 +3°C° 0.2 mm 1 mps 631 mmHg 97%
    16:00 +3°C° 0.2 mm 1 mps 631 mmHg 97%
    17:00 +1°C° 0.1 mm 1 mps 630 mmHg 98%
    18:00 0°C° 0.1 mm 1 mps 630 mmHg 98%
    19:00 -2°C° 0.1 mm 1 mps 629 mmHg 98%
    20:00 -2°C° 0 mm 1 mps 630 mmHg 98%
    21:00 -3°C° 0 mm 2 mps 630 mmHg 97%
    22:00 -3°C° 0 mm 2 mps 630 mmHg 96%
    23:00 -3°C° 0 mm 2 mps 630 mmHg 96%

    3 March, Friday

    Time Temperature Precipitation Wind Pressure Humidity
    00:00 -3°C° 0 mm 2 mps 630 mmHg 96%
    01:00 -3°C° 0 mm 2 mps 630 mmHg 96%
    02:00 -3°C° 0 mm 2 mps 629 mmHg 96%
    03:00 -5°C° 0 mm 3 mps 629 mmHg 95%
    04:00 -5°C° 0 mm 3 mps 629 mmHg 95%
    05:00 -5°C° 0 mm 3 mps 628 mmHg 95%
    06:00 -4°C° 0 mm 3 mps 628 mmHg 95%
    07:00 -4°C° 0 mm 3 mps 628 mmHg 95%
    08:00 -2°C° 0 mm 3 mps 628 mmHg 96%
    09:00 0°C° 0 mm 3 mps 628 mmHg 96%
    10:00 +1°C° 0 mm 3 mps 628 mmHg 96%
    11:00 +2°C° 0 mm 3 mps 628 mmHg 96%
    12:00 +2°C° 0 mm 3 mps 628 mmHg 96%
    13:00 +3°C° 0 mm 3 mps 627 mmHg 96%
    14:00 +3°C° 0.1 mm 3 mps 627 mmHg 96%
    15:00 +3°C° 0.1 mm 3 mps 626 mmHg 96%
    16:00 +3°C° 0.1 mm 3 mps 626 mmHg 96%
    17:00 +2°C° 0.1 mm 3 mps 625 mmHg 96%
    18:00 +1°C° 0.1 mm 3 mps 625 mmHg 96%
    19:00 0°C° 0.1 mm 3 mps 624 mmHg 95%
    20:00 0°C° 0.1 mm 3 mps 624 mmHg 95%
    21:00 0°C° 0.1 mm 3 mps 623 mmHg 95%
    22:00 0°C° 0.1 mm 3 mps 623 mmHg 94%
    23:00 0°C° 0.1 mm 3 mps 623 mmHg 94%

    4 March, Saturday

    Time Temperature Precipitation Wind Pressure Humidity
    00:00 -1°C° 0.1 mm 3 mps 622 mmHg 94%
    01:00 -1°C° 0.1 mm 3 mps 622 mmHg 94%
    02:00 -1°C° 0.2 mm 3 mps 622 mmHg 95%
    03:00 -1°C° 0.2 mm 3 mps 621 mmHg 95%
    04:00 -2°C° 0.2 mm 3 mps 621 mmHg 95%
    05:00 -2°C° 0.6 mm 3 mps 621 mmHg 96%
    06:00 -2°C° 0.6 mm 2 mps 622 mmHg 96%
    07:00 -2°C° 0.6 mm 2 mps 622 mmHg 96%
    08:00 -1°C° 0.7 mm 2 mps 622 mmHg 96%
    09:00 -1°C° 0.7 mm 2 mps 623 mmHg 96%
    10:00 +1°C° 0.7 mm 2 mps 623 mmHg 95%
    11:00 +1°C° 0.9 mm 2 mps 623 mmHg 95%
    12:00 +2°C° 0.9 mm 1 mps 624 mmHg 94%
    13:00 +2°C° 0.9 mm 1 mps 624 mmHg 94%
    14:00 +2°C° 0.2 mm 1 mps 624 mmHg 94%
    15:00 +2°C° 0.2 mm 1 mps 625 mmHg 94%
    16:00 +2°C° 0.2 mm 2 mps 625 mmHg 94%
    17:00 -1°C° 0.1 mm 2 mps 625 mmHg 95%
    18:00 -2°C° 0.1 mm 2 mps 624 mmHg 95%
    19:00 -4°C° 0.1 mm 2 mps 624 mmHg 96%
    20:00 -3°C° 0.1 mm 2 mps 624 mmHg 95%
    21:00 -3°C° 0.1 mm 2 mps 625 mmHg 95%
    22:00 -3°C° 0.1 mm 2 mps 625 mmHg 95%
    23:00 -3°C° 0.1 mm 2 mps 625 mmHg 95%

    5 March, Sunday

    Time Temperature Precipitation Wind Pressure Humidity
    00:00 -3°C° 0.1 mm 2 mps 625 mmHg 95%
    01:00 -3°C° 0.1 mm 2 mps 625 mmHg 94%
    02:00 -4°C° 0.1 mm 2 mps 625 mmHg 94%
    03:00 -4°C° 0.1 mm 2 mps 625 mmHg 94%
    04:00 -4°C° 0.1 mm 2 mps 625 mmHg 94%
    05:00 -4°C° 0.1 mm 2 mps 625 mmHg 94%
    06:00 -4°C° 0.1 mm 2 mps 625 mmHg 94%
    07:00 -2°C° 0.1 mm 1 mps 625 mmHg 94%
    08:00 -1°C° 0.3 mm 1 mps 626 mmHg 94%
    09:00 +1°C° 0.3 mm 1 mps 626 mmHg 93%
    10:00 +2°C° 0.3 mm 1 mps 627 mmHg 93%
    11:00 +2°C° 0.7 mm 1 mps 626 mmHg 94%
    12:00 +3°C° 0.7 mm 1 mps 626 mmHg 94%
    13:00 +3°C° 0.7 mm 1 mps 626 mmHg 95%
    14:00 +3°C° 0.8 mm 1 mps 626 mmHg 95%
    15:00 +3°C° 0.8 mm 1 mps 626 mmHg 96%
    16:00 +3°C° 0.8 mm 1 mps 626 mmHg 97%
    17:00 +2°C° 0.7 mm 1 mps 625 mmHg 97%
    18:00 +1°C° 0.7 mm 2 mps 625 mmHg 97%
    19:00 -1°C° 0.7 mm 2 mps 625 mmHg 97%
    20:00 -1°C° 0.3 mm 2 mps 625 mmHg 96%
    21:00 -2°C° 0.3 mm 2 mps 624 mmHg 96%
    22:00 -2°C° 0.3 mm 2 mps 624 mmHg 96%
    23:00 -3°C° 0.2 mm 2 mps 624 mmHg 96%
    Show more